STARLINK-3972 (52669 NORAD) Tracking and Keplerian Element Data
This shows tracking and keplerian element data for the satellite.
Feedback or suggestion? Click here.
Element | Value |
Catalog | 52669 |
Name | STARLINK-3972 |
Epoch Orbit | 130 |
Epoch Day | 228.91667824 |
Epoch Year | 2022 |
RAAN | 233.5127 |
Inclination | 53.2191 |
Eccentricity | 0.0002456 |
Argument of Perigee | 45.0342 |
Mean Anonmoly | 95.8586 |
Mean Motion | 15.08831143 |
Decay Rate | 0.0004001 |
L1 | 1 52669U 22053P 22228.91667824 .00040010 00000+0 25183-2 0 9994 |
L2 | 2 52669 53.2191 233.5127 0002456 45.0342 95.8586 15.08831143 1308 |
Live tracking and technical data element details for STARLINK-3972 (NORAD 52669). STARLINK-3972 can be tracked NOW for your location showing map with azimuth and elevation plus other details from your city location.
Track the satellite on the map from your city or location and see movement details for azimuth, elevation, latitude, longitude, range, height, and movement on the map or in text.
IsCatalogInMostPopularTable: catalog: 52669, numindb: 6
Update: records affected: 1
GetName: 52669 STARLINK-3972
Hit Count: updated at: Thu, 18 Aug 2022 20:54:26 GMT